Location: Eschentzwiller
(47.7125°N, 7.3981°E)
Time: 04:14:39
(UTC+00:00)

Cosmos 1709 Rocket - Pass Details

Date: 27 October 2020
Orbit: 949 x 1001 km, 82.9° (Epoch: 01 December)

Event Time Altitude Azimuth Distance (km) Brightness Sun altitude
Rises 17:45:50 0° 356° (N) 3,727 7.1 -14.9°
Reaches altitude 10° 17:48:35 10° 4° (N) 2,778 6.3 -15.4°
Maximum altitude 17:54:28 38° 71° (ENE) 1,493 4.5 -16.4°
Enters shadow 17:59:42 13° 136° (SE) 2,558 5.8 -17.3°
